Weather History for Port Aransas, TX

Change the Weather History Date:

Thursday, February 16, 2012

  Actual Average (KCRP) Record (KCRP)
Temperature  
Mean Temperature 66 °F 61 °F  
Max Temperature 69 °F 71 °F 89 °F (1982)
Min Temperature 62 °F 51 °F 20 °F (1895)
Degree Days  
Heating Degree Days 0 6  
Month to date heating degree days 112  
Since 1 July heating degree days 739  
Cooling Degree Days 0 2  
Month to date cooling degree days 25  
Year to date cooling degree days 55  
Growing Degree Days 16 (Base 50)    
Moisture  
Dew Point 63 °F    
Average Humidity 97    
Maximum Humidity 100    
Minimum Humidity 78    
Precipitation  
Precipitation 0.00 in 0.08 in 2.28 in (1965)
Month to date precipitation 1.05  
Year to date precipitation 2.59  
Snow  
Snow 0.00 in - - ()
Month to date snowfall  
Since 1 July snowfall  
Snow Depth -    
Sea Level Pressure  
Sea Level Pressure 30.08 in    
Wind  
Wind Speed 7 mph (NE)    
Max Wind Speed 20 mph    
Max Gust Speed 24 mph    
Visibility 5 miles    
Events Fog , Rain    
T = Trace of Precipitation, MM = Missing Value Source: NWS Daily Summary

Daily Weather History Graph

Daily Weather History Graph

Search for Another Location

Airport:

Trip Planner

Search our weather history database for the weather conditions in past years. The results will help you decide how hot, cold, wet, or windy it might be!

Date:

Astronomy

Feb. 16, 2012 Rise Set
Actual Time 7:05 AM CST 6:19 PM CST
Civil Twilight 6:41 AM CST 6:43 PM CST
Nautical Twilight 6:13 AM CST 7:11 PM CST
Astronomical Twilight 5:46 AM CST 7:38 PM CST
Moon 2:45 AM CST (2/16) 1:29 PM CST (2/16)
Length of Visible Light 12h 02m
Length of Day
11h 14m
Waning Crescent, 28% of the Moon is Illuminated
Feb 16
Waning Crescent
Feb 21
New
Feb 29
First Quarter
Mar 8
Full
Mar 14
Last Quarter

Hourly Weather History & Observations

Time (CST) Temp. Dew Point Humidity Pressure Visibility Wind Dir Wind Speed Gust Speed Precip Events Conditions
12:15 AM 62.6 °F 62.6 °F 100% 30.04 in 1.8 mi Calm Calm - N/A   Clear
12:35 AM 62.6 °F 62.6 °F 100% 30.04 in 2.5 mi Calm Calm - N/A   Clear
12:55 AM 62.6 °F 62.6 °F 100% 30.04 in 1.2 mi Calm Calm - N/A   Mostly Cloudy
1:15 AM 62.6 °F 62.6 °F 100% 30.04 in 1.5 mi Calm Calm - N/A   Overcast
1:35 AM 62.6 °F 62.6 °F 100% 30.03 in 0.2 mi NNE 4.6 mph - N/A Fog Fog
1:55 AM 62.6 °F 62.6 °F 100% 30.04 in 0.2 mi NNE 3.5 mph - N/A Rain Light Rain
2:15 AM 62.6 °F 62.6 °F 100% 30.04 in 0.2 mi Calm Calm - N/A Fog Fog
2:35 AM 62.6 °F 62.6 °F 100% 30.04 in 0.2 mi Calm Calm - N/A Rain Light Rain
2:55 AM 62.6 °F 62.6 °F 100% 30.05 in 0.2 mi NNE 4.6 mph - N/A Rain Light Rain
3:15 AM 62.6 °F 62.6 °F 100% 30.05 in 0.2 mi NNE 5.8 mph - N/A Rain Light Rain
3:35 AM 62.6 °F 62.6 °F 100% 30.05 in 0.2 mi NE 5.8 mph - N/A Rain Light Rain
3:55 AM 62.6 °F 62.6 °F 100% 30.04 in 0.2 mi NE 6.9 mph - N/A Fog Fog
4:15 AM 62.6 °F 62.6 °F 100% 30.04 in 0.2 mi NE 9.2 mph - N/A Fog Fog
4:35 AM 62.6 °F 62.6 °F 100% 30.04 in 0.2 mi ENE 8.1 mph - N/A   Light Drizzle
4:55 AM 62.6 °F 62.6 °F 100% 30.05 in 0.2 mi NE 9.2 mph - N/A Fog Fog
5:15 AM 62.6 °F 62.6 °F 100% 30.05 in 0.5 mi NE 9.2 mph - N/A Fog Fog
5:35 AM 62.6 °F 62.6 °F 100% 30.05 in 1.2 mi NE 9.2 mph - N/A   Overcast
5:55 AM 62.6 °F 62.6 °F 100% 30.06 in 8.0 mi NE 8.1 mph - N/A   Mostly Cloudy
6:15 AM 62.6 °F 62.6 °F 100% 30.06 in 10.0 mi NE 9.2 mph - N/A   Partly Cloudy
6:35 AM 62.6 °F 62.6 °F 100% 30.07 in 10.0 mi ENE 9.2 mph - N/A   Clear
6:55 AM 62.6 °F 62.6 °F 100% 30.11 in 5.0 mi Calm Calm - N/A   Scattered Clouds
7:15 AM 62.6 °F 62.6 °F 100% 30.13 in 6.0 mi Calm Calm - N/A   Mostly Cloudy
7:35 AM 62.6 °F 62.6 °F 100% 30.14 in 7.0 mi Calm Calm - N/A   Overcast
7:55 AM 62.6 °F 62.6 °F 100% 30.12 in 4.0 mi Calm Calm - N/A   Overcast
8:15 AM 62.6 °F 62.6 °F 100% 30.12 in 0.2 mi NE 4.6 mph - N/A Fog Fog
8:35 AM 62.6 °F 62.6 °F 100% 30.11 in 0.2 mi ENE 5.8 mph - N/A Fog Fog
8:55 AM 62.6 °F 62.6 °F 100% 30.14 in 4.0 mi North 10.4 mph - N/A   Overcast
9:15 AM 64.4 °F 64.4 °F 100% 30.13 in 7.0 mi NNE 6.9 mph - N/A   Overcast
9:35 AM 64.4 °F 64.4 °F 100% 30.13 in 5.0 mi North 11.5 mph - N/A   Mostly Cloudy
9:55 AM 64.4 °F 64.4 °F 100% 30.13 in 2.5 mi North 11.5 mph - N/A   Mostly Cloudy
10:15 AM 64.4 °F 64.4 °F 100% 30.14 in 4.0 mi North 18.4 mph 21.9 mph N/A   Mostly Cloudy
10:35 AM 64.4 °F 64.4 °F 100% 30.16 in 5.0 mi NNE 16.1 mph - N/A   Mostly Cloudy
11:15 AM 64.4 °F 64.4 °F 100% 30.12 in 5.0 mi NE 16.1 mph 21.9 mph N/A   Light Drizzle
11:35 AM 66.2 °F 66.2 °F 100% 30.12 in 6.0 mi NNE 19.6 mph 24.2 mph N/A   Partly Cloudy
11:55 AM 66.2 °F 66.2 °F 100% 30.12 in 6.0 mi NNE 15.0 mph 19.6 mph N/A   Partly Cloudy
12:15 PM 66.2 °F 66.2 °F 100% 30.13 in 9.0 mi NE 18.4 mph 23.0 mph N/A   Clear
12:35 PM 68.0 °F 64.4 °F 88% 30.12 in 10.0 mi NE 17.3 mph - N/A   Partly Cloudy
12:55 PM 69.8 °F 62.6 °F 78% 30.11 in 10.0 mi NNE 18.4 mph 23.0 mph N/A   Clear
1:15 PM 68.0 °F 60.8 °F 78% 30.11 in 10.0 mi NE 17.3 mph 23.0 mph N/A   Clear
1:35 PM 66.2 °F 60.8 °F 83% 30.10 in 10.0 mi NE 16.1 mph - N/A   Partly Cloudy
1:55 PM 68.0 °F 60.8 °F 78% 30.10 in 10.0 mi NE 13.8 mph - N/A   Partly Cloudy
2:15 PM 68.0 °F 60.8 °F 78% 30.07 in 10.0 mi NE 15.0 mph 20.7 mph N/A   Scattered Clouds
2:35 PM 66.2 °F 60.8 °F 83% 30.05 in 10.0 mi NE 17.3 mph - N/A   Scattered Clouds
3:15 PM 64.4 °F 59.0 °F 83% 30.04 in 10.0 mi NE 15.0 mph 20.7 mph N/A   Partly Cloudy
3:35 PM 64.4 °F 60.8 °F 88% 30.05 in 10.0 mi NE 15.0 mph - N/A   Clear
3:55 PM 64.4 °F 60.8 °F 88% 30.05 in 10.0 mi ENE 12.7 mph - N/A   Partly Cloudy
4:15 PM 64.4 °F 60.8 °F 88% 30.04 in 10.0 mi NE 12.7 mph 18.4 mph N/A   Clear
4:35 PM 62.6 °F 62.6 °F 100% 30.04 in 9.0 mi NE 12.7 mph - N/A   Clear
5:15 PM 64.4 °F 64.4 °F 100% 30.04 in 10.0 mi NE 15.0 mph - N/A   Clear
5:35 PM 64.4 °F 64.4 °F 100% 30.03 in 10.0 mi NE 13.8 mph - N/A   Clear
6:15 PM 62.6 °F 62.6 °F 100% 30.06 in 7.0 mi NE 12.7 mph - N/A   Clear
6:35 PM 62.6 °F 62.6 °F 100% 30.06 in 7.0 mi NE 11.5 mph - N/A   Clear
6:55 PM 62.6 °F 62.6 °F 100% 30.06 in 7.0 mi NE 12.7 mph - N/A   Clear
7:15 PM 62.6 °F 62.6 °F 100% 30.06 in 5.0 mi NE 9.2 mph - N/A   Clear
7:35 PM 62.6 °F 62.6 °F 100% 30.05 in 7.0 mi ENE 12.7 mph - N/A   Partly Cloudy
7:55 PM 62.6 °F 62.6 °F 100% 30.07 in 7.0 mi NE 11.5 mph - N/A   Clear
8:15 PM 62.6 °F 62.6 °F 100% 30.07 in 5.0 mi NNE 10.4 mph - N/A   Clear
8:35 PM 62.6 °F 62.6 °F 100% 30.08 in 7.0 mi NE 10.4 mph - N/A   Mostly Cloudy
8:55 PM 64.4 °F 64.4 °F 100% 30.09 in 8.0 mi NE 10.4 mph - N/A   Overcast
9:15 PM 62.6 °F 62.6 °F 100% 30.08 in 7.0 mi NE 10.4 mph 16.1 mph N/A   Mostly Cloudy
9:35 PM 62.6 °F 62.6 °F 100% 30.08 in 6.0 mi NE 10.4 mph - N/A   Partly Cloudy
9:55 PM 62.6 °F 62.6 °F 100% 30.09 in 6.0 mi NE 9.2 mph - N/A   Scattered Clouds
10:15 PM 62.6 °F 62.6 °F 100% 30.11 in 5.0 mi NE 6.9 mph - N/A   Mostly Cloudy
10:35 PM 62.6 °F 62.6 °F 100% 30.08 in 5.0 mi NE 11.5 mph - N/A   Mostly Cloudy
10:55 PM 62.6 °F 62.6 °F 100% 30.07 in 5.0 mi NNE 11.5 mph - N/A   Mostly Cloudy
11:15 PM 62.6 °F 62.6 °F 100% 30.05 in 5.0 mi NE 10.4 mph - N/A   Mostly Cloudy
11:35 PM 62.6 °F 62.6 °F 100% 30.06 in 5.0 mi ENE 10.4 mph - N/A   Mostly Cloudy
11:55 PM 62.6 °F 62.6 °F 100% 30.04 in 4.0 mi ENE 11.5 mph - N/A   Mostly Cloudy